Home > Weather > Lansing > Past weeks

Flag for USA Weather for the Past 2 Weeks in Lansing, Michigan, USA

Now
52 °F

Overcast.


Feels Like: 50 °F
Forecast: 43 / 57 °F
Wind: 6 mph from North

Location: Capital City Airport

Current Time: May 2, 2016 at 3:40:56 PM

Latest Report: May 2, 2016 at 2:53 PM


Visibility: 10 mi

Pressure: 30.06 "Hg

Humidity: 72%

Dew Point: 43 °F

Location of LansingLocation

Historic Weather in Lansing — Graph

°F

Lansing Temperature Yesterday

Maximum temperature yesterday: 51 °F (at 4:53 PM)
Minimum temperature yesterday: 44 °F (at 12:53 AM)
Average temperature yesterday: 46 °F

High & Low Weather Summary for the Past Weeks

 TemperatureHumidityPressure
High80 °F (Apr 18, 2:53 PM)97% (Apr 22, 1:53 AM)30.41 "Hg (Apr 22, 1:53 AM)
Low33 °F (Apr 27, 6:53 AM)21% (Apr 17, 6:53 PM)29.64 "Hg (Apr 26, 3:04 AM)
Average51 °F66%30.06 "Hg
* Reported Apr 17 1:53 PM — May 2 1:53 PM, Lansing, Weather by CustomWeather, © 2016

Note: Actual official high and low records may vary slightly from our data, if they occured in-between our weather recording intervals... More about our weather records

Advertising

Lansing Weather History for the Previous 24 Hours

Scroll right to see more
 ConditionsComfort  
Time TempWeatherWind HumidityBarometerVisibility
1:53 PM
Mon, May 2
52 °FOvercast.12 mph72%30.04 "Hg10 mi
12:53 PM49 °FOvercast.9 mph80%30.07 "Hg10 mi
11:53 AM48 °FOvercast.10 mph83%30.06 "Hg10 mi
10:53 AM45 °FLow clouds.9 mph90%30.07 "Hg10 mi
9:53 AM44 °FLow clouds.6 mph85%30.07 "Hg10 mi
8:53 AM43 °FLow clouds.7 mph86%30.06 "Hg10 mi
8:03 AM42 °FOvercast.9 mph89%30.04 "Hg10 mi
7:53 AM42 °FMostly cloudy.7 mph89%30.05 "Hg10 mi
6:53 AM42 °FLight rain. Low clouds.6 mph89%30.03 "Hg7 mi
5:53 AM42 °FLow clouds.8 mph92%30.01 "Hg10 mi
4:53 AM43 °FLow clouds.12 mph93%29.99 "Hg10 mi
3:53 AM42 °FLight rain. Mostly cloudy.13 mph92%29.99 "Hg10 mi
2:53 AM42 °FRain. Fog.7 mph96%30.02 "Hg6 mi
1:53 AM43 °FRain. Fog.5 mph93%30.04 "Hg5 mi
1:04 AM43 °FRain. Fog.3 mph89%30.02 "Hg6 mi
12:53 AM44 °FLight rain. Mostly cloudy.5 mph85%30.03 "Hg9 mi
11:53 PM
Sun, May 1
44 °FPassing clouds.13 mph79%30.00 "Hg10 mi
10:53 PM44 °FClear.9 mph79%30.01 "Hg10 mi
9:53 PM46 °FOvercast.10 mph77%30.05 "Hg10 mi
8:53 PM46 °FOvercast.13 mph86%30.06 "Hg10 mi
7:53 PM47 °FLow clouds.12 mph86%30.04 "Hg10 mi
6:53 PM47 °FLow clouds.12 mph90%30.04 "Hg10 mi
6:02 PM49 °FLow clouds.16 mph86%30.01 "Hg10 mi
4:53 PM51 °FOvercast.10 mph86%30.02 "Hg10 mi
3:53 PM49 °FLow clouds.10 mph90%30.03 "Hg8 mi
Weather by CustomWeather, © 2016

See weather overviewHow to use our weather pages